Weather History for Denton, TX

Change the Weather History Date:

Friday, November 29, 2013

  Actual Average Record
Temperature  
Mean Temperature 40 °F -  
Max Temperature 57 °F 59 °F 80 °F (2006)
Min Temperature 24 °F 38 °F 24 °F (2013)
Degree Days  
Heating Degree Days 24    
Moisture  
Dew Point 30 °F    
Average Humidity 70    
Maximum Humidity 92    
Minimum Humidity 38    
Precipitation  
Precipitation 0.00 in - - ()
Sea Level Pressure  
Sea Level Pressure 30.42 in    
Wind  
Wind Speed 3 mph (SSE)    
Max Wind Speed 13 mph    
Max Gust Speed -    
Visibility 10 miles    
Events      
Averages and records for this station are not official NWS values.
T = Trace of Precipitation, MM = Missing Value Source: NWS Daily Summary

Daily Weather History Graph

Daily Weather History Graph

Search for Another Location

Airport:

Trip Planner

Search our weather history database for the weather conditions in past years. The results will help you decide how hot, cold, wet, or windy it might be!

Date:

Astronomy

Nov. 29, 2013 Rise Set
Actual Time 7:12 AM CST 5:21 PM CST
Civil Twilight 6:45 AM CST 5:48 PM CST
Nautical Twilight 6:15 AM CST 6:19 PM CST
Astronomical Twilight 5:45 AM CST 6:49 PM CST
Moon 3:29 AM CST (11/29) 2:58 PM CST (11/29)
Length of Visible Light 11h 02m
Length of Day
10h 08m
Waning Crescent, 14% of the Moon is Illuminated
Nov 29
Waning Crescent
Dec 2
New
Dec 9
First Quarter
Dec 17
Full
Dec 25
Last Quarter

Hourly Weather History & Observations

Time (CST) Temp. Windchill Dew Point Humidity Pressure Visibility Wind Dir Wind Speed Gust Speed Precip Events Conditions
12:53 AM 33.1 °F - 27.0 °F 78% 30.44 in 10.0 mi Calm Calm - N/A   Clear
1:53 AM 28.0 °F - 26.1 °F 92% 30.45 in 10.0 mi Calm Calm - N/A   Clear
2:53 AM 26.1 °F 21.9 °F 24.1 °F 92% 30.46 in 10.0 mi North 3.5 mph - N/A   Clear
3:53 AM 26.1 °F - 23.0 °F 88% 30.46 in 10.0 mi Calm Calm - N/A   Clear
4:53 AM 25.0 °F - 23.0 °F 92% 30.47 in 10.0 mi Calm Calm - N/A   Clear
5:53 AM 25.0 °F - 23.0 °F 92% 30.47 in 10.0 mi Calm Calm - N/A   Clear
6:53 AM 24.1 °F - 21.9 °F 91% 30.48 in 10.0 mi Calm Calm - N/A   Clear
7:53 AM 26.1 °F - 23.0 °F 88% 30.49 in 10.0 mi Calm Calm - N/A   Clear
8:53 AM 34.0 °F 31.0 °F 30.0 °F 85% 30.51 in 10.0 mi SE 3.5 mph - N/A   Clear
9:53 AM 43.0 °F 39.5 °F 35.1 °F 74% 30.51 in 10.0 mi SSE 5.8 mph - N/A   Clear
10:53 AM 48.9 °F - 32.0 °F 52% 30.50 in 10.0 mi SSW 9.2 mph - N/A   Clear
11:53 AM 53.1 °F - 33.1 °F 47% 30.47 in 10.0 mi South 6.9 mph - N/A   Clear
12:53 PM 55.0 °F - 30.0 °F 38% 30.43 in 10.0 mi South 8.1 mph - N/A   Clear
1:53 PM 55.9 °F - 33.1 °F 42% 30.39 in 10.0 mi South 10.4 mph - N/A   Clear
2:53 PM 57.0 °F - 34.0 °F 42% 30.37 in 10.0 mi SSE 10.4 mph - N/A   Clear
3:53 PM 55.9 °F - 33.1 °F 42% 30.35 in 10.0 mi SSE 9.2 mph - N/A   Clear
4:53 PM 54.0 °F - 33.1 °F 45% 30.35 in 10.0 mi SSE 12.7 mph - N/A   Clear
5:53 PM 48.9 °F - 36.0 °F 61% 30.34 in 10.0 mi SSE 8.1 mph - N/A   Clear
6:53 PM 46.0 °F 41.9 °F 35.1 °F 66% 30.35 in 10.0 mi SSE 8.1 mph - N/A   Clear
7:53 PM 45.0 °F 41.8 °F 35.1 °F 68% 30.37 in 10.0 mi SE 5.8 mph - N/A   Clear
8:53 PM 44.1 °F 39.0 °F 35.1 °F 71% 30.36 in 10.0 mi SSE 9.2 mph - N/A   Clear
9:53 PM 39.9 °F 35.8 °F 35.1 °F 83% 30.35 in 10.0 mi South 5.8 mph - N/A   Clear
10:53 PM 42.1 °F 40.2 °F 35.1 °F 76% 30.35 in 10.0 mi SSE 3.5 mph - N/A   Clear
11:53 PM 41.0 °F 38.0 °F 35.1 °F 79% 30.35 in 10.0 mi South 4.6 mph - N/A   Clear